Torna al catalogo

ANSER-LS

AttivoScienzaSSO
NORAD 62644·PAYLOAD·🇪🇸 Spain

Lanciato Jan 14, 2025 da Vandenberg Space Force Base

Loading…

Prossimi Passaggi (prossime 24 ore)

TLE

AggiornatoSource: Space-Track

Epoca: Sep 13, 2026, 17:57 UTC

1 62644U 25009AM  26256.74813516  .00045102  00000-0  61242-3 0  9994
2 62644  97.3952 346.0416 0000484  75.2046 284.9263 15.57501361 92945

Traccia ANSER-LS in tempo reale con AllMySat

Download on the App Store